Location: Pebble Beach Sunset Acres
(33.0837°N, 96.4508°W)
Time: 13:59:24
(UTC+00:00)

Okean 1 - Pass Details

Date: 05 July 2022
Orbit: 532 x 552 km, 82.5° (Epoch: 18 August)

Event Time Altitude Azimuth Distance (km) Brightness Sun altitude
Rises 08:44:50 0° 11° (N) 2,685 7.9 -25.6°
Reaches altitude 10° 08:47:27 10° 29° (NNE) 1,787 7.0 -25.3°
Maximum altitude 08:50:22 20° 77° (ENE) 1,272 5.7 -24.9°
Enters shadow 08:52:45 12° 120° (ESE) 1,630 5.8 -24.6°
